Tracking 30102 objects as of 12-Dec-2024
HD Live streaming from Space Station
objects crossing your sky now

STARLINK-6231

Track STARLINK-6231 now!
10-day predictions
STARLINK-6231 is classified as:


NORAD ID: 56779
Int'l Code: 2023-078N
Perigee: 576.9 km
Apogee: 581.5 km
Inclination: 70.0 °
Period: 96.1 minutes
Semi major axis: 6950 km
RCS: Unknown
Launch date: May 31, 2023
Source: United States (US)
Launch site: AIR FORCE WESTERN TEST RANGE (AFWTR)
Your satellite tracking list
Your tracking list is empty




NASA's NSSDC Master Catalog

Two Line Element Set (TLE):
1 56779U 23078N   24347.39256037  .00000390  00000-0  40498-4 0  9990
2 56779  69.9996  24.8625 0003355 270.3806  89.6968 14.98330874 85683
Source of the keplerian elements: AFSPC